Location: Caltech
(34.1382°N, 118.1253°W)
Time: 06:36:17
(UTC-07:00)

SO-67 - Visible Passes

Search period start: 18 April 2014 00:00
Search period end: 28 April 2014 00:00
Orbit: 469 x 470 km, 97.2° (Epoch: 18 April)

Date Brightness Start Highest point End Pass type
(mag) Time Alt. Az. Time Alt. Az. Time Alt. Az.
19 Apr ? 20:24:15 10° SW 20:26:19 15° W 20:28:24 10° WNW visible
20 Apr ? 19:53:59 10° SSW 19:57:14 37° W 20:00:31 10° NNW visible
22 Apr ? 20:31:01 10° WSW 20:32:30 12° W 20:34:00 10° WNW visible
23 Apr ? 20:00:13 10° SSW 20:03:20 30° W 20:06:27 10° NW visible
26 Apr ? 20:06:16 10° SSW 20:09:12 25° W 20:12:08 10° NW visible
